DW5988 Weather Reports


Display with metric or nautical units.
time (UTC)temp
F
wind
direction
speed
MPH
gust
MPH
rain 1hr
in
rain 24hr
in
rain mn
in
humidity
%
barometer
mb
20260504023804 54 15 16.0 23.0 0.00 0.00 0.00 43 1009.4
20260504023304 54 9 15.0 24.0 0.00 0.00 0.00 43 1009.3
20260504022305 55 6 18.0 25.0 0.00 0.00 0.00 40 1009.1
20260504020804 55 11 17.0 26.0 0.00 0.00 0.00 39 1008.8
20260504020304 56 6 19.0 25.0 0.00 0.00 0.00 38 1008.9
20260504015804 56 0 18.0 25.0 0.00 0.00 0.00 38 1008.8
20260504015304 56 0 19.0 26.0 0.00 0.00 0.00 38 1008.8
20260504014804 56 1 17.0 23.0 0.00 0.00 0.00 39 1008.6
20260504014304 56 4 18.0 26.0 0.00 0.00 0.00 38 1008.6
20260504012304 57 4 20.0 25.0 0.00 0.00 0.00 36 1008.2
20260504011804 57 6 22.0 26.0 0.00 0.00 0.00 35 1008.1
20260504011304 57 5 20.0 24.0 0.00 0.00 0.00 37 1008.0
20260504005804 58 13 17.0 24.0 0.00 0.00 0.00 37 1008.0
20260504005305 58 355 18.0 26.0 0.00 0.00 0.00 37 1008.0
20260504004303 58 19 17.0 26.0 0.00 0.00 0.00 37 1008.0
20260504003804 58 12 18.0 25.0 0.00 0.00 0.00 37 1008.0
20260504003304 58 20 14.0 22.0 0.00 0.00 0.00 37 1008.1
20260504002804 58 3 19.0 25.0 0.00 0.00 0.00 36 1008.0
20260504002304 58 13 20.0 28.0 0.00 0.00 0.00 36 1008.0
20260504001805 58 19 19.0 26.0 0.00 0.00 0.00 36 1007.8
20260504001304 58 23 20.0 24.0 0.00 0.00 0.00 35 1007.6
20260504000303 59 16 15.0 26.0 0.00 0.00 0.00 36 1007.6
20260503235804 59 30 19.0 26.0 0.00 0.00 0.00 34 1007.4
20260503235304 60 31 21.0 30.0 0.00 0.00 0.00 35 1007.5
20260503234803 60 19 21.0 28.0 0.00 0.00 0.00 34 1007.5
20260503234304 61 29 20.0 32.0 0.00 0.00 0.00 33 1007.4
20260503233304 62 26 17.0 26.0 0.00 0.00 0.00 33 1007.6
20260503232305 63 22 18.0 26.0 0.00 0.00 0.00 32 1007.5
20260503231304 63 24 20.0 26.0 0.00 0.00 0.00 30 1007.5
20260503224804 65 5 18.0 24.0 0.00 0.00 0.00 32 1007.1
20260503223804 65 5 18.0 29.0 0.00 0.00 0.00 31 1007.1
20260503223304 65 349 21.0 25.0 0.00 0.00 0.00 31 1006.9
20260503222804 65 345 18.0 25.0 0.00 0.00 0.00 30 1006.9
20260503222304 65 344 18.0 24.0 0.00 0.00 0.00 30 1006.9
20260503220804 66 346 21.0 26.0 0.00 0.00 0.00 29 1006.8
20260503215304 66 335 17.0 26.0 0.00 0.00 0.00 28 1007.0
20260503214804 66 346 18.0 23.0 0.00 0.00 0.00 27 1006.9
20260503214303 66 332 18.0 26.0 0.00 0.00 0.00 28 1006.9
20260503213804 66 329 21.0 29.0 0.00 0.00 0.00 28 1007.0
20260503213304 66 333 18.0 25.0 0.00 0.00 0.00 28 1007.0
20260503212305 67 338 17.0 23.0 0.00 0.00 0.00 27 1007.3
20260503211804 67 335 16.0 24.0 0.00 0.00 0.00 27 1007.2
20260503210804 66 346 17.0 25.0 0.00 0.00 0.00 29 1007.2
20260503210304 66 344 20.0 26.0 0.00 0.00 0.00 28 1007.1
20260503205304 66 352 21.0 31.0 0.00 0.00 0.00 29 1007.1
20260503203805 67 327 19.0 26.0 0.00 0.00 0.00 29 1007.3
20260503203304 66 321 14.0 26.0 0.00 0.00 0.00 29 1007.3
20260503202804 66 329 14.0 24.0 0.00 0.00 0.00 29 1007.3
20260503201804 66 327 15.0 21.0 0.00 0.00 0.00 30 1007.4
20260503201304 65 320 14.0 21.0 0.00 0.00 0.00 32 1007.4
20260503195805 66 335 14.0 22.0 0.00 0.00 0.00 31 1007.3
20260503193304 66 352 19.0 28.0 0.00 0.00 0.00 32 1007.1
20260503192305 67 306 16.0 25.0 0.00 0.00 0.00 31 1007.2
20260503191804 67 317 16.0 22.0 0.00 0.00 0.00 29 1007.0
20260503191304 67 317 20.0 26.0 0.00 0.00 0.00 29 1007.0
20260503185804 68 341 18.0 25.0 0.00 0.00 0.00 28 1006.9
20260503184803 67 320 15.0 26.0 0.00 0.00 0.00 29 1007.0
20260503184304 67 323 17.0 28.0 0.00 0.00 0.00 29 1007.2
20260503182305 66 301 14.0 33.0 0.00 0.00 0.00 30 1007.1
20260503181804 66 295 20.0 35.0 0.00 0.00 0.00 29 1007.2
20260503175805 66 296 14.0 26.0 0.00 0.00 0.00 30 1007.4
20260503175304 66 312 15.0 30.0 0.00 0.00 0.00 30 1007.6
20260503174804 66 289 25.0 36.0 0.00 0.00 0.00 30 1007.6
20260503173304 65 296 20.0 31.0 0.00 0.00 0.00 31 1007.8
20260503172803 65 291 21.0 33.0 0.00 0.00 0.00 31 1007.9
20260503172305 65 283 24.0 30.0 0.00 0.00 0.00 32 1007.9
20260503170804 65 289 16.0 26.0 0.00 0.00 0.00 32 1008.0
20260503170303 65 326 16.0 25.0 0.00 0.00 0.00 32 1008.1
20260503140304 51 274 13.0 17.0 0.00 0.00 0.00 49 1009.1
20260503131304 47 268 10.0 13.0 0.00 0.00 0.00 57 1009.0
20260503090304 51 275 12.0 15.0 0.00 0.00 0.00 57 1009.1
20260503081304 53 249 12.0 18.0 0.00 0.00 0.00 56 1009.1
20260503080803 53 233 14.0 20.0 0.00 0.00 0.00 56 1009.0
20260503072804 52 229 9.0 13.0 0.00 0.00 0.00 60 1009.5
20260503072305 52 229 9.0 12.0 0.00 0.00 0.00 60 1009.5
20260503071804 52 231 8.0 13.0 0.00 0.00 0.00 60 1009.6
20260503071304 52 232 8.0 13.0 0.00 0.00 0.00 61 1009.8
20260503070304 51 224 7.0 10.0 0.00 0.00 0.00 61 1010.0
20260503054804 49 218 5.0 7.0 0.00 0.00 0.00 62 1010.4
20260503054303 49 217 4.0 6.0 0.00 0.00 0.00 61 1010.6
20260503053804 49 189 3.0 3.0 0.00 0.00 0.00 62 1010.6
20260503052804 48 180 3.0 6.0 0.00 0.00 0.00 65 1010.6
20260503052305 47 169 4.0 5.0 0.00 0.00 0.00 65 1010.7
20260503051804 48 169 3.0 5.0 0.00 0.00 0.00 64 1010.7
20260503045805 47 171 3.0 5.0 0.00 0.00 0.00 66 1010.9
20260503045305 47 171 1.0 5.0 0.00 0.00 0.00 65 1010.9
20260503044304 48 172 2.0 5.0 0.00 0.00 0.00 61 1010.9
20260503043304 47 183 3.0 5.0 0.00 0.00 0.00 63 1010.9
20260503042305 48 158 4.0 7.0 0.00 0.00 0.00 62 1011.0
20260503041805 48 208 6.0 7.0 0.00 0.00 0.00 62 1010.9
20260503041303 49 185 2.0 6.0 0.00 0.00 0.00 60 1010.8
20260503040304 50 224 7.0 9.0 0.00 0.00 0.00 61 1011.0
20260503033804 51 231 7.0 9.0 0.00 0.00 0.00 57 1011.1
20260503033304 51 231 7.0 8.0 0.00 0.00 0.00 57 1011.1
20260503032304 52 232 6.0 8.0 0.00 0.00 0.00 55 1011.1
20260503031804 53 231 6.0 8.0 0.00 0.00 0.00 54 1011.1
20260503031304 53 233 6.0 7.0 0.00 0.00 0.00 53 1011.0
20260503030803 54 225 6.0 7.0 0.00 0.00 0.00 53 1011.1
20260503025305 57 224 5.0 7.0 0.00 0.00 0.00 46 1011.0
20260503024804 57 224 5.0 6.0 0.00 0.00 0.00 46 1011.0